Total_Precipitation_Accumulation
0.65 0.66 0.65 0.64 0.64 0.62 0.61 0.59 0.56 0.54 0.50 0.47 0.48 0.47 0.43 0.37 0.30 0.27 0.23 0.25 0.27 0.29 0.39 0.57 0.75 1.03 1.31 1.38 1.43 1.31 1.19 1.12 0.98 0.82 0.78 0.90 0.99 0.96 0.90 0.96 0.88 0.71 0.65
0.69 0.68 0.70 0.65 0.63 0.62 0.61 0.59 0.55 0.52 0.50 0.46 0.43 0.39 0.39 0.38 0.35 0.33 0.31 0.30 0.29 0.29 0.33 0.47 0.63 0.83 1.15 1.38 1.52 1.68 1.50 1.36 1.29 1.08 0.86 0.82 0.90 0.94 0.93 0.93 0.98 0.88 0.73
0.84 0.75 0.72 0.69 0.64 0.65 0.67 0.66 0.62 0.55 0.52 0.48 0.43 0.39 0.35 0.33 0.32 0.34 0.34 0.33 0.34 0.32 0.33 0.40 0.51 0.68 0.89 1.16 1.43 1.72 1.86 1.60 1.51 1.44 1.18 0.92 0.88 0.94 0.98 1.02 1.04 1.08 0.95
0.91 0.90 0.82 0.73 0.67 0.71 0.74 0.76 0.73 0.67 0.57 0.52 0.49 0.43 0.37 0.33 0.30 0.28 0.29 0.31 0.35 0.35 0.34 0.38 0.43 0.54 0.72 0.94 1.20 1.51 2.04 1.98 1.77 1.68 1.63 1.31 1.02 0.96 0.96 1.04 1.10 1.13 1.19
0.95 0.97 0.96 0.88 0.79 0.78 0.76 0.75 0.73 0.70 0.65 0.59 0.54 0.52 0.47 0.40 0.35 0.33 0.29 0.26 0.28 0.33 0.36 0.39 0.42 0.46 0.57 0.74 0.99 1.30 1.90 2.22 2.17 2.07 2.00 1.82 1.42 1.13 1.04 1.05 1.14 1.20 1.28
0.96 0.92 0.97 0.98 0.92 0.86 0.82 0.77 0.73 0.67 0.62 0.61 0.62 0.60 0.53 0.49 0.44 0.40 0.35 0.30 0.26 0.28 0.33 0.38 0.42 0.43 0.48 0.60 0.75 0.98 1.39 1.85 2.11 2.23 2.22 2.25 2.05 1.55 1.24 1.15 1.18 1.30 1.38
1.06 0.98 0.92 0.93 0.94 0.90 0.83 0.80 0.78 0.77 0.73 0.67 0.71 0.76 0.71 0.58 0.50 0.46 0.42 0.38 0.33 0.30 0.30 0.34 0.39 0.44 0.47 0.54 0.61 0.73 0.96 1.35 1.74 2.00 2.11 2.22 2.43 2.23 1.74 1.43 1.32 1.38 1.51
1.04 1.06 0.98 0.91 0.86 0.87 0.88 0.83 0.81 0.81 0.81 0.77 0.74 0.80 0.82 0.79 0.63 0.45 0.40 0.40 0.37 0.36 0.36 0.35 0.36 0.42 0.49 0.51 0.50 0.55 0.67 0.95 1.38 1.80 2.05 2.15 2.36 2.62 2.41 1.92 1.62 1.56 1.64
0.98 1.01 1.01 0.97 0.90 0.84 0.86 0.83 0.80 0.78 0.79 0.75 0.68 0.80 0.87 0.75 0.60 0.49 0.39 0.34 0.35 0.36 0.36 0.36 0.37 0.38 0.45 0.53 0.52 0.48 0.49 0.67 1.02 1.45 1.88 2.16 2.34 2.64 2.83 2.55 2.09 1.83 1.82
0.99 0.95 0.96 0.96 0.98 0.92 0.82 0.79 0.79 0.79 0.81 0.82 0.72 0.64 0.66 0.65 0.67 0.57 0.46 0.41 0.39 0.38 0.36 0.36 0.37 0.37 0.40 0.48 0.53 0.51 0.48 0.54 0.76 1.16 1.61 2.11 2.44 2.68 3.08 3.06 2.73 2.31 2.09
1.06 0.97 0.93 0.92 0.92 0.90 0.83 0.77 0.79 0.81 0.83 0.83 0.79 0.69 0.62 0.54 0.53 0.63 0.52 0.45 0.49 0.46 0.43 0.41 0.40 0.39 0.40 0.44 0.47 0.51 0.56 0.60 0.77 1.01 1.38 1.86 2.54 2.85 3.27 3.50 3.18 2.66 2.33
1.13 1.03 0.92 0.88 0.84 0.81 0.80 0.75 0.70 0.71 0.75 0.75 0.73 0.71 0.71 0.68 0.57 0.58 0.56 0.43 0.43 0.44 0.46 0.49 0.50 0.48 0.46 0.48 0.49 0.59 0.64 0.67 0.82 0.97 1.11 1.46 2.05 2.74 3.20 3.54 3.42 2.93 2.52
1.11 1.03 0.96 0.88 0.81 0.77 0.76 0.75 0.72 0.66 0.66 0.71 0.71 0.66 0.63 0.59 0.54 0.58 0.65 0.57 0.50 0.45 0.48 0.50 0.49 0.52 0.53 0.55 0.56 0.64 0.65 0.69 0.76 0.87 0.93 1.06 1.42 2.02 2.74 3.32 3.63 3.38 2.89
0.98 0.91 0.91 0.88 0.80 0.75 0.76 0.78 0.78 0.71 0.68 0.69 0.67 0.65 0.65 0.58 0.59 0.66 0.75 0.81 0.77 0.56 0.49 0.47 0.43 0.44 0.50 0.53 0.55 0.63 0.59 0.67 0.72 0.78 0.85 0.89 1.04 1.40 1.99 2.69 3.45 3.91 3.60
0.93 0.91 0.90 0.90 0.85 0.83 0.83 0.82 0.83 0.77 0.73 0.72 0.70 0.69 0.70 0.65 0.64 0.66 0.71 0.82 1.04 0.92 0.57 0.41 0.41 0.43 0.51 0.57 0.57 0.54 0.52 0.62 0.67 0.73 0.81 0.85 0.93 1.12 1.46 2.00 2.59 3.46 4.04
0.92 0.91 0.95 0.97 0.91 0.87 0.90 0.92 0.87 0.81 0.81 0.78 0.76 0.76 0.72 0.68 0.71 0.74 0.78 0.78 0.85 0.98 0.78 0.43 0.39 0.41 0.50 0.63 0.71 0.62 0.57 0.69 0.70 0.71 0.73 0.75 0.81 0.96 1.19 1.52 1.95 2.51 3.36
0.92 0.89 0.89 0.96 0.99 0.93 0.86 0.93 0.93 0.89 0.88 0.82 0.79 0.80 0.76 0.73 0.81 0.84 0.89 0.88 0.84 0.87 0.90 0.54 0.43 0.47 0.61 0.71 0.76 0.71 0.70 0.67 0.66 0.71 0.72 0.75 0.78 0.87 1.04 1.26 1.49 1.85 2.48
0.96 0.87 0.85 0.91 0.98 0.98 0.89 0.87 0.89 0.89 0.90 0.87 0.83 0.84 0.84 0.81 0.84 0.88 0.96 0.96 0.88 0.82 0.89 0.75 0.58 0.62 0.70 0.78 0.81 0.78 0.78 0.75 0.66 0.68 0.68 0.77 0.81 0.86 0.97 1.12 1.28 1.50 1.87
1.13 0.98 0.90 0.91 1.00 1.05 0.99 0.89 0.90 0.89 0.86 0.83 0.81 0.86 0.90 0.90 0.86 0.86 0.97 1.02 0.96 0.90 0.92 0.92 0.73 0.67 0.75 0.85 0.97 0.96 0.91 0.89 0.78 0.73 0.72 0.78 0.83 0.83 0.89 1.02 1.18 1.33 1.50
1.20 1.12 0.98 0.92 0.99 1.12 1.14 1.11 1.10 1.02 0.92 0.82 0.74 0.75 0.85 0.98 0.99 1.01 1.06 1.05 1.07 1.11 1.09 1.07 0.92 0.82 0.87 0.94 1.08 1.14 1.10 1.02 0.95 0.84 0.85 0.87 0.89 0.89 0.85 0.85 0.90 1.02 1.20
1.09 1.10 1.07 1.00 1.01 1.21 1.44 1.60 1.49 1.19 0.99 0.87 0.73 0.68 0.78 1.02 1.20 1.36 1.43 1.32 1.33 1.45 1.42 1.36 1.23 1.08 0.99 1.05 1.14 1.13 1.17 1.09 1.07 1.00 0.94 0.94 0.88 0.84 0.79 0.77 0.79 0.83 0.94
1.04 1.04 1.04 1.02 1.00 1.18 1.54 1.76 1.44 1.09 0.95 0.88 0.81 0.71 0.77 1.00 1.14 1.26 1.39 1.38 1.43 1.61 1.71 1.64 1.48 1.27 1.00 0.90 0.98 1.15 1.32 1.45 1.39 1.15 1.04 1.03 0.89 0.85 0.78 0.70 0.74 0.77 0.83
1.02 1.02 0.98 0.96 0.92 0.99 1.34 1.57 1.33 1.03 0.92 0.87 0.82 0.77 0.79 0.89 1.01 1.04 1.13 1.16 1.20 1.37 1.61 1.69 1.63 1.27 1.06 0.97 1.14 1.35 1.41 1.51 1.40 1.30 1.31 1.35 1.06 0.93 0.80 0.77 0.84 0.78 0.82
0.98 0.98 0.97 0.93 0.89 0.92 1.21 1.47 1.30 1.03 0.94 0.89 0.87 0.81 0.75 0.79 0.91 1.06 1.14 1.10 1.03 1.10 1.34 1.53 1.70 1.50 1.28 1.30 1.55 1.77 1.87 1.90 1.67 1.52 1.46 1.63 1.33 1.08 0.95 0.88 0.89 0.80 0.77
0.96 0.94 0.92 0.93 0.88 0.86 1.10 1.48 1.37 1.06 0.99 0.92 0.91 0.85 0.75 0.71 0.88 1.04 1.03 1.01 0.94 0.99 1.11 1.30 1.45 1.51 1.51 1.66 1.94 2.31 2.46 2.44 2.18 1.84 1.60 1.60 1.56 1.42 1.35 1.24 1.11 0.97 0.83
0.89 0.91 0.87 0.87 0.85 0.79 0.94 1.37 1.49 1.12 1.01 0.93 0.92 0.88 0.94 0.91 0.99 1.01 0.93 0.99 1.07 0.98 0.94 0.98 1.02 1.08 1.13 1.27 1.66 2.08 2.36 2.44 2.22 2.11 1.82 1.60 1.64 1.67 1.97 1.77 1.39 1.10 0.94